#timestamp,LO_Frequency,Hit,StdDev 
1697450415.5,286047000.3,N
1697450435.4,286047001.2,N
1697450455.2,286047000.7,N
1697450475.1,286047000.5,N
1697450476.0,286047000.5,N
1697450495.8,286047000.5,N
1697450515.6,286047000.0,N
1697450535.5,286046998.1,N
1697450555.3,286047002.6,N
1697450575.1,286047001.7,N
1697450595.9,286047011.8,Y
1697450615.7,286047009.7,P
1697450635.6,286047000.2,N
1697450655.4,286047009.3,N
1697450675.2,286047012.3,N
1697450695.1,286047011.9,N
1697450696.0,286047011.9,N
1697450715.8,286047011.6,N
1697450735.7,286047011.4,N
1697450755.5,286047011.6,N
1697450775.3,286047011.1,N
1697450795.2,286047012.9,N
1697450815.9,286047015.6,Y
1697450835.7,286047004.4,P
1697450855.6,286047003.5,N
1697450875.4,286047003.3,N
1697450895.3,286047004.4,N
1697450915.1,286047004.0,N
1697450916.0,286047004.0,N
1697450935.8,286047003.7,N
1697450955.7,286047003.0,N
1697450975.5,286047003.5,N
1697450995.3,286047004.1,N
1697451015.2,286047003.8,N
1697451035.0,286047004.0,N
1697451035.9,286047004.0,N
1697451055.8,286047001.7,N
1697451075.6,286047005.5,Y
1697451095.4,286046999.9,P
1697451115.3,286047000.4,N
1697451135.1,286047001.1,N
1697451155.8,286047000.6,N
1697451175.7,286047000.6,N
1697451195.5,286047000.2,N
1697451215.4,286047000.6,N
1697451235.2,286046998.1,N
1697451255.0,286047000.5,N
1697451255.9,286047000.5,N
1697451275.8,286046999.7,N
1697451295.6,286046999.7,N
1697451315.4,286047000.2,N
1697451335.3,286047002.4,N
1697451355.1,286046999.7,N
1697451375.9,286047002.2,N
1697451395.7,286046999.7,N
1697451415.5,286046999.8,N
1697451435.4,286047000.0,N
1697451455.2,286047000.5,N
1697451475.0,286047001.2,N
1697451475.9,286047001.2,N
1697451495.8,286047001.1,N
1697451545.7,286682705.5,E
1697451555.6,285771284.8,N
1697451575.4,285412703.9,P
1697451595.2,285412703.9,P
1697451615.1,285412704.1,Y
1697451616.0,285412704.1,P
1697451635.8,285927259.2,N
1697451655.7,285927258.3,N
1697451675.5,285927257.9,N
1697451695.3,285927258.3,N
1697451715.2,285927258.4,N
1697451735.0,285927259.1,N
1697451735.9,285927259.1,N
1697451755.8,285927256.6,N
1697451775.6,285927258.6,N
1697451795.4,285927257.7,N
1697451815.3,285927258.6,N
1697451835.1,285927257.8,N
1697451855.8,285927260.0,N
1697451875.7,285927260.6,N
1697451895.5,285927258.2,N
1697451915.4,285927257.9,N
1697451935.2,285927258.1,N
1697451955.0,285927258.1,N
1697451955.9,285927258.1,N
1697451975.8,285927260.3,N
1697451995.6,285927260.4,N
1697452015.4,285927260.8,N
1697452035.3,285927259.6,N
1697452055.1,285927261.5,N
1697452075.9,285927262.2,N
1697452095.7,285927262.4,N
1697452115.5,285927260.0,N
1697452135.4,285927260.0,N
1697452155.2,285927259.9,N
1697452175.0,285927260.7,N
1697452176.0,285927260.7,Y
1697452195.8,286047002.2,P
1697452215.6,286047001.6,N
1697452235.5,286047002.1,N
1697452255.3,286047001.8,N
1697452275.1,286047002.4,N
1697452295.9,286047002.5,N
1697452315.7,286047002.5,N
1697452335.5,286047002.4,N
1697452355.4,286046999.8,N
1697452375.2,286047001.8,N
1697452395.1,286047004.0,N
1697452396.0,286047004.0,N
1697452415.8,286047001.7,N
1697452435.6,286047004.3,N
1697452455.5,286047003.9,N
1697452475.3,286047004.1,N
1697452495.1,286047003.0,N
1697452515.9,286047005.7,N
1697452535.7,286047003.3,N
1697452555.6,286047004.3,N
1697452575.4,286047004.3,N
1697452595.2,286047003.1,N
1697452615.1,286047004.4,N
1697452616.0,286047004.4,N
1697452635.8,286047004.3,N
1697452655.6,286047001.7,N
1697452675.5,286047001.3,N
1697452695.3,286047004.3,N
1697452715.2,286047001.8,N
1697452735.9,286047002.0,N
1697452755.7,286047001.3,N
1697452775.6,286047001.3,N
1697452795.4,286047001.5,N
1697452815.3,286047004.2,Y
1697452835.1,286047000.7,P
1697452836.0,286047000.7,N
1697452855.8,286047000.5,N
1697452875.7,286046999.8,N
1697452895.5,286047000.3,N
1697452915.3,286047011.9,Y
1697452935.2,286046999.9,P
1697452955.0,286046999.9,N
1697452955.9,286046999.9,N
1697452975.8,286047000.5,N
1697452995.6,286047000.6,N
1697453015.4,286047000.2,N
1697453035.3,286047000.6,N
1697453055.1,286047000.3,N
1697453075.8,286047000.2,N
1697453095.7,286047002.5,Y
1697453115.5,286047000.0,P
1697453135.4,286047000.5,P
1697453155.2,286047000.9,P
1697453175.0,286046999.9,N
1697453175.9,286046999.9,N
1697453195.8,286046999.8,N
1697453215.6,286047000.2,N
1697453235.4,286047000.4,N
1697453255.3,286047000.4,N
1697453275.1,286047002.7,Y
1697453295.9,286046999.8,P
1697453315.7,286047002.8,P
1697453335.5,286046999.7,N
1697453355.4,286047000.2,N
1697453375.2,286047001.5,N
1697453395.0,286047002.5,N
1697453396.0,286047002.5,N
1697453415.8,286047000.3,N
1697453435.6,286046999.7,N
1697453455.5,286046999.8,N
1697453475.3,286047000.1,N
1697453495.1,286047002.8,N
1697453515.9,286046999.7,N
1697453535.7,286047001.9,N
1697453555.6,286047001.7,N
1697453575.4,286047002.0,N
1697453595.2,286047001.5,N
1697453615.1,286047001.6,N
1697453616.0,286047001.6,N
1697453635.8,286046999.7,N
1697453655.6,286047002.0,N
1697453675.5,286047002.6,N
1697453695.3,286047001.7,N
1697453715.2,286047002.5,N
1697453735.9,286047000.0,N
1697453755.7,286047000.3,N
1697453775.6,286047000.3,N
1697453795.4,286047000.0,N
1697453815.2,286047002.8,N
1697453835.1,286047002.1,N
1697453836.0,286047002.1,N
1697453855.8,286047002.5,N
1697453875.7,286047002.8,N
1697453895.5,286047002.5,N
1697453915.3,286047001.5,N
1697453935.2,286047001.4,N
1697453955.0,286047001.8,N
1697453955.9,286047001.8,N
1697453975.8,286047001.7,N
1697453995.6,286047004.4,Y
